SCP
0 0 0 0 0 0 0 0 0 0 1 1 1 1 1 1 1 1 1 1 1 0 0 0 0 0 0 0 0 0 0 0 0 0 0 0 0 0 0 0 0 0 0
0 0 0 0 0 0 0 0 0 0 1 1 2 1 1 0 0 1 1 1 1 0 0 0 0 0 0 0 0 0 0 0 0 0 0 0 0 0 0 0 0 0 0
0 0 0 0 0 0 0 0 0 1 1 1 0 0 0 0 0 0 1 0 0 0 0 0 0 0 0 0 0 0 0 0 0 0 0 0 0 0 0 0 0 0 0
0 0 0 0 0 0 0 0 1 1 1 1 0 0 0 0 0 0 0 0 0 0 0 0 0 0 0 0 0 0 0 0 0 0 0 0 0 0 0 0 0 0 0
0 0 0 -0 0 0 0 1 1 1 1 0 0 0 0 0 0 0 0 0 0 0 0 0 0 0 0 0 0 0 0 0 0 0 0 0 0 0 0 0 0 0 0
0 0 -0 -0 0 1 1 1 1 0 0 0 0 0 0 0 0 0 0 0 0 0 0 0 0 0 0 0 0 0 0 0 0 0 0 0 0 0 0 0 0 0 0
0 0 0 0 1 1 1 1 0 0 0 0 0 0 0 0 0 0 0 0 0 0 0 0 0 0 0 0 0 0 0 0 0 0 0 0 -0 0 0 0 0 0 0
0 0 0 0 0 0 0 0 0 0 0 0 0 0 0 0 0 0 0 0 0 0 0 0 0 0 0 0 0 0 0 0 0 0 0 -0 0 0 -0 0 0 0 0
0 0 0 0 0 0 0 0 0 0 0 0 0 0 0 0 0 0 0 0 0 0 0 0 0 0 0 0 0 0 0 0 0 -0 0 -0 -0 -0 -0 0 0 0 0
0 0 0 0 0 0 0 0 0 0 0 0 0 0 0 0 0 0 0 0 0 0 0 0 0 0 0 0 0 0 0 0 -0 0 0 0 -0 -0 0 0 -0 0 0
0 0 0 -0 0 0 0 0 0 0 0 0 0 0 0 0 0 0 0 0 0 0 0 0 0 0 0 0 0 0 0 0 0 0 0 0 -0 -0 0 0 0 0 0
0 0 -0 -0 -0 -0 0 0 0 -0 0 0 0 0 0 0 0 0 0 -0 0 0 -0 0 0 0 0 0 0 0 0 0 0 0 0 -0 -0 0 0 0 -0 0 0
-0 -0 -0 -0 -0 -0 0 0 0 -0 0 0 0 0 0 0 0 0 -0 -0 0 0 -0 -0 0 0 0 0 0 0 0 0 0 0 -0 -0 -0 0 0 0 0 0 0
-0 -0 -0 -0 -0 -0 0 0 0 -0 0 0 0 0 -0 -0 0 0 0 0 0 -0 0 -0 -0 0 0 0 0 0 0 -0 -0 -0 -0 -0 -0 0 0 0 0 0 0
-0 -0 -0 -0 -0 -0 0 -0 -0 -0 0 0 0 0 0 0 0 0 0 -0 0 0 0 -0 -0 -0 0 0 0 0 -0 -0 -0 0 -0 -0 0 -0 0 0 0 0 0
-0 -0 -0 -0 -0 -0 -0 -0 -0 0 -0 -0 -0 0 -0 -0 -0 -0 0 -0 0 0 0 -0 -0 0 -0 -0 0 0 0 0 -0 0 -0 0 -0 0 0 0 0 0 0
-0 -0 -0 -0 -0 -0 -0 -0 0 0 -0 0 0 -0 -0 -0 -0 -0 0 -0 0 0 0 0 -0 -0 -0 -0 -0 -0 0 0 0 0 0 0 0 -0 0 0 0 0 0
0 -0 -0 -0 -0 0 0 0 0 0 -0 -0 -0 -0 -0 -0 -0 -0 -0 -0 0 0 0 0 0 -0 -0 -0 -0 -0 0 0 0 0 0 0 0 0 0 0 0 0 0
0 0 -0 -0 0 0 0 0 0 -0 -0 -0 -0 -0 -0 -0 -0 -0 -0 -0 0 0 0 0 -0 0 -0 0 0 0 0 0 -0 0 0 0 0 0 0 0 0 0 0
-0 0 -0 0 0 0 0 -0 0 -0 -0 -0 -0 -0 -0 -0 -0 -0 -0 -0 0 0 0 0 0 -0 -0 0 -0 0 0 0 0 0 0 0 0 0 0 0 0 0 0
0 -0 0 -0 0 -0 -0 -0 -0 -0 0 -0 -0 -0 -0 -0 -0 -0 0 -0 0 0 0 0 0 0 0 0 0 -0 0 0 -0 0 -0 0 0 0 0 0 0 0 0
0 0 0 0 0 -0 -0 -0 -0 0 -0 -0 -0 -0 -0 -0 0 -0 -0 -0 0 0 0 0 0 0 0 0 -0 -0 0 0 0 0 0 0 0 -0 -0 -0 0 0 0
0 0 0 0 0 -0 -0 -0 -0 -0 -0 -0 -0 -0 0 0 0 -0 -0 0 0 0 0 0 0 0 0 0 -0 -0 -0 0 0 -0 0 -0 0 0 -0 0 0 0 0
0 0 0 0 0 0 -0 -0 -0 0 -0 -0 -0 -0 0 0 0 0 0 0 0 0 0 0 0 0 0 0 0 0 0 0 0 0 0 0 0 0 -0 -0 0 0 0
0 0 0 0 0 0 0 0 -0 -0 -0 -0 -0 0 0 0 0 0 0 0 0 0 0 0 0 0 0 -0 0 0 0 0 0 0 0 0 0 0 0 0 0 -0 -0
0 0 0 0 0 0 0 0 -0 -0 -0 -0 0 0 0 0 0 0 0 0 0 0 0 0 0 0 0 0 0 0 0 0 0 0 0 0 0 0 -0 -0 -0 -0 -0
Wind_Speed_500mb
91 89 96 90 82 75 71 53 60 61 65 58 69 77 74 69 62 52 44 43 44 39 36 33 36 33 27 27 33 39 38 40 35 34 36 39 39 40 41 39 35 35 36
89 68 65 59 50 49 53 54 58 59 62 61 68 75 69 64 51 42 43 41 36 39 34 32 36 27 29 32 36 37 39 37 33 32 31 22 33 42 42 38 35 30 33
70 78 67 70 67 60 61 62 54 49 54 59 69 67 52 44 46 48 50 48 33 33 39 35 33 29 32 36 36 36 34 28 25 25 17 9 12 15 43 41 39 36 33
83 70 73 66 60 58 65 58 53 49 51 57 57 54 54 53 55 49 42 31 30 31 36 35 31 33 32 35 30 27 26 25 23 24 31 23 3 10 11 34 38 33 31
82 79 75 71 63 52 50 62 56 48 43 41 39 44 48 49 45 39 30 24 29 30 34 33 30 31 34 25 22 22 23 22 24 28 27 33 35 27 12 7 28 34 34
53 52 62 66 72 55 42 49 48 37 31 29 30 33 43 47 43 37 28 28 31 34 35 30 34 30 23 18 18 18 18 18 21 26 30 35 36 35 34 23 16 33 38
60 53 58 58 33 30 39 40 38 34 30 31 33 36 40 41 38 32 31 32 33 33 31 28 26 20 17 16 14 12 14 14 13 15 17 26 31 29 28 27 18 31 32
61 62 44 24 26 38 42 40 38 38 37 39 41 39 38 36 33 28 27 30 27 24 22 20 16 16 17 16 15 13 15 12 11 15 16 20 24 27 29 29 31 28 27
44 32 25 35 44 42 39 40 41 43 43 42 41 40 37 32 28 31 29 23 20 17 17 11 11 10 9 11 11 16 18 16 12 13 15 19 20 27 27 25 20 33 30
29 31 38 45 44 42 44 43 43 49 47 44 40 35 29 26 26 26 23 20 15 11 15 13 10 6 7 10 15 18 17 16 16 15 14 18 23 24 28 29 29 28 43
42 46 50 48 47 48 48 48 53 52 49 42 36 32 26 24 21 17 18 17 14 18 19 15 10 1 5 9 12 12 10 18 19 17 14 17 20 22 25 24 26 34 37
53 57 55 53 52 54 53 54 53 51 44 36 30 27 21 15 15 15 13 19 23 23 18 9 1 5 12 12 11 14 25 23 23 24 20 17 20 20 24 24 25 35 37
61 59 57 55 58 60 57 54 52 47 40 35 32 27 20 14 11 12 14 23 25 24 11 3 4 5 13 16 12 19 19 27 23 19 21 22 23 26 25 29 28 36 36
66 62 58 60 62 59 58 55 49 43 39 38 33 22 16 14 10 15 15 23 26 19 5 4 5 11 15 16 16 15 10 13 27 23 24 23 22 18 21 30 35 41 39
64 64 63 62 60 58 59 55 48 46 42 39 32 20 13 15 14 20 14 34 29 15 9 4 5 7 14 15 15 14 8 11 20 14 18 18 15 12 12 13 35 44 48
60 66 64 63 61 60 58 54 49 49 45 38 36 17 12 13 22 28 29 28 22 14 10 7 3 10 15 18 13 12 11 12 10 10 22 22 18 20 18 18 29 41 50
68 69 66 64 62 60 55 52 49 51 43 36 30 15 16 19 23 27 29 27 21 14 10 8 2 10 17 16 12 9 9 12 11 15 21 28 28 23 21 24 32 35 42
71 68 66 62 58 53 52 49 48 45 37 34 27 22 14 18 29 28 26 26 17 15 11 9 6 10 16 11 8 9 13 15 11 12 13 21 21 20 28 38 43 46 47
66 65 65 61 59 54 54 52 51 43 38 34 28 24 20 30 30 25 27 21 18 16 14 10 8 10 9 6 5 9 12 13 18 17 14 13 22 26 35 53 57 53 49
60 62 63 63 60 58 57 53 51 43 40 34 29 22 22 29 29 22 24 19 17 17 17 15 11 7 2 3 6 10 9 19 23 23 21 27 32 33 36 45 57 55 61
54 60 64 64 62 59 60 54 54 51 43 33 23 23 27 29 27 18 17 14 14 18 18 16 13 8 7 7 9 13 9 14 26 30 32 34 37 39 37 39 44 52 48
56 61 64 65 65 59 59 55 55 47 43 34 26 24 30 29 25 17 15 12 11 13 17 18 16 10 11 12 12 13 13 11 26 36 38 41 38 36 44 49 52 54 56
59 63 67 67 66 63 59 56 49 48 45 41 36 28 29 25 23 18 13 16 13 11 12 18 17 15 15 18 18 18 17 13 27 37 42 43 41 39 42 43 51 48 54
66 68 68 69 69 67 61 48 48 51 46 38 41 34 27 28 24 15 16 13 12 12 10 14 17 22 18 22 23 23 22 22 32 41 44 44 46 41 38 42 43 45 48
48 65 67 70 70 65 62 51 50 54 46 37 43 38 31 30 20 15 17 14 9 4 2 6 11 17 22 22 20 20 25 29 36 46 47 43 45 49 45 42 44 44 44
31 42 62 68 66 63 62 54 52 53 46 39 50 42 38 30 20 14 24 18 11 6 4 2 2 11 15 19 19 19 27 30 35 45 48 47 46 49 51 46 49 49 44
Wind_Direction_500mb
277 280 286 285 286 280 280 262 245 245 235 237 237 238 239 238 242 231 225 223 224 241 209 219 230 242 267 281 275 276 277 277 275 273 260 252 250 243 235 234 238 242 235
278 285 290 288 277 284 268 256 241 239 240 242 239 237 239 235 233 219 215 216 237 213 218 227 232 258 271 279 280 279 281 276 273 263 258 259 253 240 234 234 234 235 229
275 283 285 282 281 277 257 243 238 241 245 242 236 235 235 226 207 202 205 206 210 217 218 225 237 258 272 282 280 277 276 269 260 245 226 210 235 260 233 233 236 240 234
272 276 282 277 283 285 251 242 243 245 239 238 235 235 227 201 196 198 206 205 183 197 208 222 241 259 274 280 274 265 263 253 246 235 223 222 250 196 197 234 231 226 222
272 269 270 283 287 282 254 248 242 227 231 235 227 222 219 203 187 186 194 184 189 205 212 225 249 266 275 273 257 257 253 250 242 236 232 232 237 245 266 274 221 216 211
265 276 287 281 282 274 249 220 212 205 206 206 207 209 204 196 188 187 189 194 199 207 217 239 257 268 261 260 256 251 248 245 241 236 236 236 238 239 238 249 224 205 206
277 283 286 281 265 217 195 192 188 178 177 180 173 181 191 197 197 188 189 203 209 219 232 254 268 260 245 253 253 245 245 238 237 235 239 237 233 235 227 236 239 197 195
271 275 269 244 186 174 175 173 170 162 159 165 170 176 182 184 182 189 200 207 208 229 249 264 257 229 243 250 248 242 238 235 235 244 244 235 223 223 216 244 218 189 183
248 236 212 177 169 167 164 165 159 153 158 164 169 172 171 176 182 183 189 200 226 244 259 222 205 221 236 249 248 241 240 238 239 243 239 229 220 213 216 216 224 220 190
199 188 173 164 160 161 159 158 156 154 159 163 166 165 163 167 178 189 202 213 227 231 179 172 182 193 260 273 260 250 237 235 239 241 246 241 223 216 219 224 230 217 219
177 165 162 157 159 159 157 156 157 158 161 166 166 165 164 164 174 188 211 216 190 165 159 150 147 77 321 295 282 272 243 232 218 222 237 229 217 216 214 216 216 210 214
164 162 158 158 160 159 159 159 160 161 162 162 164 165 164 142 175 180 185 184 166 160 154 147 208 309 323 307 291 263 248 224 218 226 230 214 214 221 229 231 220 212 208
160 160 159 161 160 158 159 161 163 164 161 157 152 148 156 173 177 181 164 161 163 160 150 119 320 313 327 321 307 299 250 227 209 215 223 217 218 231 232 227 216 192 195
161 160 162 161 159 160 162 164 163 163 159 159 157 159 180 199 199 175 172 177 165 151 185 231 255 323 336 337 329 313 265 204 213 228 221 224 232 232 240 227 202 195 193
160 165 164 163 161 162 163 163 163 162 155 161 170 178 185 196 193 166 165 160 155 162 179 192 307 355 356 346 348 6 92 164 189 204 213 202 196 205 217 203 181 185 169
161 169 167 166 165 165 164 165 166 165 173 178 181 172 212 209 179 166 153 160 162 171 184 189 2 7 351 355 10 39 97 132 159 175 169 175 185 165 141 161 170 170 173
170 172 171 172 170 169 166 166 167 171 184 192 188 187 184 168 175 181 177 176 171 188 195 207 302 346 347 358 14 56 118 124 110 125 153 167 168 169 159 146 159 168 169
175 174 174 174 174 170 169 164 169 177 190 188 190 181 174 169 166 161 172 173 184 179 195 229 267 327 343 356 27 86 121 131 126 139 149 152 153 155 168 160 160 160 163
184 175 174 171 169 168 166 171 180 185 187 181 192 189 176 170 169 183 185 184 191 206 217 233 264 315 337 8 58 115 120 129 127 127 135 146 145 155 172 160 165 159 159
189 182 178 177 175 174 173 179 179 183 182 188 196 184 181 176 174 183 192 203 210 220 232 244 257 281 271 102 96 123 112 126 124 121 113 121 134 137 145 160 160 157 165
198 191 187 183 182 178 181 182 190 189 183 193 173 176 177 171 171 183 203 211 229 224 224 228 231 244 178 144 131 128 120 143 137 132 127 125 128 132 135 149 167 160 162
199 200 194 193 190 184 187 190 196 188 189 187 175 165 168 176 184 191 194 196 196 213 213 214 210 198 176 156 152 138 126 141 150 141 135 132 128 136 135 130 140 145 152
200 203 199 196 196 191 192 194 193 186 191 195 182 172 175 182 198 204 207 187 197 196 198 195 200 194 175 161 152 144 136 134 157 144 139 138 138 136 148 139 154 151 155
196 199 199 197 195 195 195 195 190 186 196 198 190 182 182 194 203 212 185 198 193 190 196 187 185 180 181 172 166 161 153 149 157 151 146 153 152 149 156 164 165 167 167
194 196 197 198 196 195 195 192 190 192 201 201 195 192 192 196 191 187 180 172 166 177 96 160 182 191 180 168 161 165 163 161 162 158 155 157 163 166 165 170 175 179 178
157 189 198 198 198 196 194 193 194 197 201 203 198 198 197 196 190 188 178 176 172 163 189 134 127 160 172 169 159 159 167 163 169 169 168 171 174 177 181 177 175 178 180
Wind_Speed_850mb
91 89 96 90 82 75 71 53 60 61 65 58 69 77 74 69 62 52 44 43 44 39 36 33 36 33 27 27 33 39 38 40 35 34 36 39 39 40 41 39 35 35 36
89 68 65 59 50 49 53 54 58 59 62 61 68 75 69 64 51 42 43 41 36 39 34 32 36 27 29 32 36 37 39 37 33 32 31 22 33 42 42 38 35 30 33
70 78 67 70 67 60 61 62 54 49 54 59 69 67 52 44 46 48 50 48 33 33 39 35 33 29 32 36 36 36 34 28 25 25 17 9 12 15 43 41 39 36 33
83 70 73 66 60 58 65 58 53 49 51 57 57 54 54 53 55 49 42 31 30 31 36 35 31 33 32 35 30 27 26 25 23 24 31 23 3 10 11 34 38 33 31
82 79 75 71 63 52 50 62 56 48 43 41 39 44 48 49 45 39 30 24 29 30 34 33 30 31 34 25 22 22 23 22 24 28 27 33 35 27 12 7 28 34 34
53 52 62 66 72 55 42 49 48 37 31 29 30 33 43 47 43 37 28 28 31 34 35 30 34 30 23 18 18 18 18 18 21 26 30 35 36 35 34 23 16 33 38
60 53 58 58 33 30 39 40 38 34 30 31 33 36 40 41 38 32 31 32 33 33 31 28 26 20 17 16 14 12 14 14 13 15 17 26 31 29 28 27 18 31 32
61 62 44 24 26 38 42 40 38 38 37 39 41 39 38 36 33 28 27 30 27 24 22 20 16 16 17 16 15 13 15 12 11 15 16 20 24 27 29 29 31 28 27
44 32 25 35 44 42 39 40 41 43 43 42 41 40 37 32 28 31 29 23 20 17 17 11 11 10 9 11 11 16 18 16 12 13 15 19 20 27 27 25 20 33 30
29 31 38 45 44 42 44 43 43 49 47 44 40 35 29 26 26 26 23 20 15 11 15 13 10 6 7 10 15 18 17 16 16 15 14 18 23 24 28 29 29 28 43
42 46 50 48 47 48 48 48 53 52 49 42 36 32 26 24 21 17 18 17 14 18 19 15 10 1 5 9 12 12 10 18 19 17 14 17 20 22 25 24 26 34 37
53 57 55 53 52 54 53 54 53 51 44 36 30 27 21 15 15 15 13 19 23 23 18 9 1 5 12 12 11 14 25 23 23 24 20 17 20 20 24 24 25 35 37
61 59 57 55 58 60 57 54 52 47 40 35 32 27 20 14 11 12 14 23 25 24 11 3 4 5 13 16 12 19 19 27 23 19 21 22 23 26 25 29 28 36 36
66 62 58 60 62 59 58 55 49 43 39 38 33 22 16 14 10 15 15 23 26 19 5 4 5 11 15 16 16 15 10 13 27 23 24 23 22 18 21 30 35 41 39
64 64 63 62 60 58 59 55 48 46 42 39 32 20 13 15 14 20 14 34 29 15 9 4 5 7 14 15 15 14 8 11 20 14 18 18 15 12 12 13 35 44 48
60 66 64 63 61 60 58 54 49 49 45 38 36 17 12 13 22 28 29 28 22 14 10 7 3 10 15 18 13 12 11 12 10 10 22 22 18 20 18 18 29 41 50
68 69 66 64 62 60 55 52 49 51 43 36 30 15 16 19 23 27 29 27 21 14 10 8 2 10 17 16 12 9 9 12 11 15 21 28 28 23 21 24 32 35 42
71 68 66 62 58 53 52 49 48 45 37 34 27 22 14 18 29 28 26 26 17 15 11 9 6 10 16 11 8 9 13 15 11 12 13 21 21 20 28 38 43 46 47
66 65 65 61 59 54 54 52 51 43 38 34 28 24 20 30 30 25 27 21 18 16 14 10 8 10 9 6 5 9 12 13 18 17 14 13 22 26 35 53 57 53 49
60 62 63 63 60 58 57 53 51 43 40 34 29 22 22 29 29 22 24 19 17 17 17 15 11 7 2 3 6 10 9 19 23 23 21 27 32 33 36 45 57 55 61
54 60 64 64 62 59 60 54 54 51 43 33 23 23 27 29 27 18 17 14 14 18 18 16 13 8 7 7 9 13 9 14 26 30 32 34 37 39 37 39 44 52 48
56 61 64 65 65 59 59 55 55 47 43 34 26 24 30 29 25 17 15 12 11 13 17 18 16 10 11 12 12 13 13 11 26 36 38 41 38 36 44 49 52 54 56
59 63 67 67 66 63 59 56 49 48 45 41 36 28 29 25 23 18 13 16 13 11 12 18 17 15 15 18 18 18 17 13 27 37 42 43 41 39 42 43 51 48 54
66 68 68 69 69 67 61 48 48 51 46 38 41 34 27 28 24 15 16 13 12 12 10 14 17 22 18 22 23 23 22 22 32 41 44 44 46 41 38 42 43 45 48
48 65 67 70 70 65 62 51 50 54 46 37 43 38 31 30 20 15 17 14 9 4 2 6 11 17 22 22 20 20 25 29 36 46 47 43 45 49 45 42 44 44 44
31 42 62 68 66 63 62 54 52 53 46 39 50 42 38 30 20 14 24 18 11 6 4 2 2 11 15 19 19 19 27 30 35 45 48 47 46 49 51 46 49 49 44
Wind_Direction_850mb
277 280 286 285 286 280 280 262 245 245 235 237 237 238 239 238 242 231 225 223 224 241 209 219 230 242 267 281 275 276 277 277 275 273 260 252 250 243 235 234 238 242 235
278 285 290 288 277 284 268 256 241 239 240 242 239 237 239 235 233 219 215 216 237 213 218 227 232 258 271 279 280 279 281 276 273 263 258 259 253 240 234 234 234 235 229
275 283 285 282 281 277 257 243 238 241 245 242 236 235 235 226 207 202 205 206 210 217 218 225 237 258 272 282 280 277 276 269 260 245 226 210 235 260 233 233 236 240 234
272 276 282 277 283 285 251 242 243 245 239 238 235 235 227 201 196 198 206 205 183 197 208 222 241 259 274 280 274 265 263 253 246 235 223 222 250 196 197 234 231 226 222
272 269 270 283 287 282 254 248 242 227 231 235 227 222 219 203 187 186 194 184 189 205 212 225 249 266 275 273 257 257 253 250 242 236 232 232 237 245 266 274 221 216 211
265 276 287 281 282 274 249 220 212 205 206 206 207 209 204 196 188 187 189 194 199 207 217 239 257 268 261 260 256 251 248 245 241 236 236 236 238 239 238 249 224 205 206
277 283 286 281 265 217 195 192 188 178 177 180 173 181 191 197 197 188 189 203 209 219 232 254 268 260 245 253 253 245 245 238 237 235 239 237 233 235 227 236 239 197 195
271 275 269 244 186 174 175 173 170 162 159 165 170 176 182 184 182 189 200 207 208 229 249 264 257 229 243 250 248 242 238 235 235 244 244 235 223 223 216 244 218 189 183
248 236 212 177 169 167 164 165 159 153 158 164 169 172 171 176 182 183 189 200 226 244 259 222 205 221 236 249 248 241 240 238 239 243 239 229 220 213 216 216 224 220 190
199 188 173 164 160 161 159 158 156 154 159 163 166 165 163 167 178 189 202 213 227 231 179 172 182 193 260 273 260 250 237 235 239 241 246 241 223 216 219 224 230 217 219
177 165 162 157 159 159 157 156 157 158 161 166 166 165 164 164 174 188 211 216 190 165 159 150 147 77 321 295 282 272 243 232 218 222 237 229 217 216 214 216 216 210 214
164 162 158 158 160 159 159 159 160 161 162 162 164 165 164 142 175 180 185 184 166 160 154 147 208 309 323 307 291 263 248 224 218 226 230 214 214 221 229 231 220 212 208
160 160 159 161 160 158 159 161 163 164 161 157 152 148 156 173 177 181 164 161 163 160 150 119 320 313 327 321 307 299 250 227 209 215 223 217 218 231 232 227 216 192 195
161 160 162 161 159 160 162 164 163 163 159 159 157 159 180 199 199 175 172 177 165 151 185 231 255 323 336 337 329 313 265 204 213 228 221 224 232 232 240 227 202 195 193
160 165 164 163 161 162 163 163 163 162 155 161 170 178 185 196 193 166 165 160 155 162 179 192 307 355 356 346 348 6 92 164 189 204 213 202 196 205 217 203 181 185 169
161 169 167 166 165 165 164 165 166 165 173 178 181 172 212 209 179 166 153 160 162 171 184 189 2 7 351 355 10 39 97 132 159 175 169 175 185 165 141 161 170 170 173
170 172 171 172 170 169 166 166 167 171 184 192 188 187 184 168 175 181 177 176 171 188 195 207 302 346 347 358 14 56 118 124 110 125 153 167 168 169 159 146 159 168 169
175 174 174 174 174 170 169 164 169 177 190 188 190 181 174 169 166 161 172 173 184 179 195 229 267 327 343 356 27 86 121 131 126 139 149 152 153 155 168 160 160 160 163
184 175 174 171 169 168 166 171 180 185 187 181 192 189 176 170 169 183 185 184 191 206 217 233 264 315 337 8 58 115 120 129 127 127 135 146 145 155 172 160 165 159 159
189 182 178 177 175 174 173 179 179 183 182 188 196 184 181 176 174 183 192 203 210 220 232 244 257 281 271 102 96 123 112 126 124 121 113 121 134 137 145 160 160 157 165
198 191 187 183 182 178 181 182 190 189 183 193 173 176 177 171 171 183 203 211 229 224 224 228 231 244 178 144 131 128 120 143 137 132 127 125 128 132 135 149 167 160 162
199 200 194 193 190 184 187 190 196 188 189 187 175 165 168 176 184 191 194 196 196 213 213 214 210 198 176 156 152 138 126 141 150 141 135 132 128 136 135 130 140 145 152
200 203 199 196 196 191 192 194 193 186 191 195 182 172 175 182 198 204 207 187 197 196 198 195 200 194 175 161 152 144 136 134 157 144 139 138 138 136 148 139 154 151 155
196 199 199 197 195 195 195 195 190 186 196 198 190 182 182 194 203 212 185 198 193 190 196 187 185 180 181 172 166 161 153 149 157 151 146 153 152 149 156 164 165 167 167
194 196 197 198 196 195 195 192 190 192 201 201 195 192 192 196 191 187 180 172 166 177 96 160 182 191 180 168 161 165 163 161 162 158 155 157 163 166 165 170 175 179 178
157 189 198 198 198 196 194 193 194 197 201 203 198 198 197 196 190 188 178 176 172 163 189 134 127 160 172 169 159 159 167 163 169 169 168 171 174 177 181 177 175 178 180